HS5FXK-3 Weather Reports


time (UTC)temp
C
wind
direction
speed
KPH
gust
KPH
rain 1hr
cm
rain 24hr
cm
rain mn
cm
humidity
%
barometer
mb
20260505013913 27 0 0.0 0.0 0.00 0.00 0.00 99 983.0
20260505012400 26 0 0.0 0.0 0.00 0.00 0.00 99 983.0
20260505010848 27 0 0.0 0.0 0.00 0.00 0.00 99 982.0
20260505005335 27 0 0.0 0.0 0.00 0.00 0.00 99 982.0
20260505003821 26 0 0.0 0.0 0.00 0.00 0.00 99 982.0
20260505002309 26 0 0.0 0.0 0.00 0.00 0.00 99 982.0
20260505000756 26 0 0.0 0.0 0.00 0.00 0.00 99 982.0
20260504235243 26 0 0.0 0.0 0.00 0.00 0.00 99 982.0
20260504233729 26 0 0.0 0.0 0.00 0.00 0.00 99 981.0
20260504232217 26 0 0.0 0.0 0.00 0.00 0.00 99 981.0
20260504230703 25 0 0.0 0.0 0.00 0.00 0.00 99 981.0
20260504225151 25 0 0.0 0.0 0.00 0.00 0.00 99 981.0
20260504223638 25 0 0.0 0.0 0.00 0.00 0.00 99 980.0
20260504222126 25 0 0.0 0.0 0.00 0.00 0.00 99 980.0
20260504220613 25 0 0.0 0.0 0.00 0.00 0.00 99 980.0
20260504215101 25 0 0.0 0.0 0.00 0.00 0.00 99 980.0
20260504213548 25 0 0.0 0.0 0.00 0.00 0.00 99 980.0
20260504212358 25 0 0.0 0.0 0.00 0.00 0.00 99 980.0
20260504210845 25 0 0.0 0.0 0.00 0.00 0.00 99 980.0
20260504205333 26 0 0.0 0.0 0.00 0.00 0.00 99 980.0
20260504203820 26 0 0.0 0.0 0.00 0.00 0.00 99 980.0
20260504202307 26 0 0.0 0.0 0.00 0.00 0.00 99 980.0
20260504200849 26 0 0.0 0.0 0.00 0.00 0.00 99 980.0
20260504195337 26 0 0.0 0.0 0.00 0.00 0.00 99 980.0
20260504193951 26 0 0.0 0.0 0.00 0.00 0.00 99 981.0
20260504192439 26 0 0.0 0.0 0.00 0.00 0.00 99 981.0
20260504190927 26 0 0.0 0.0 0.00 0.00 0.00 99 981.0
20260504185414 26 0 0.0 0.0 0.00 0.00 0.00 99 981.0
20260504183902 26 0 0.0 0.0 0.00 0.00 0.00 99 981.0
20260504182349 26 0 0.0 0.0 0.00 0.00 0.00 99 981.0
20260504180836 26 0 0.0 0.0 0.00 0.00 0.00 99 981.0
20260504175324 26 0 0.0 0.0 0.00 0.00 0.00 99 982.0
20260504173812 26 0 0.0 0.0 0.00 0.00 0.00 97 982.0
20260504172259 26 0 0.0 0.0 0.00 0.00 0.00 99 982.0
20260504170746 26 0 0.0 0.0 0.00 0.00 0.00 99 982.0
20260504150608 30 0 0.0 0.0 0.00 0.00 0.00 69 980.0
20260504140518 31 0 0.0 0.0 0.00 0.00 0.00 57 978.0
20260504081958 42 0 0.0 0.0 0.00 0.00 0.00 24 975.0
20260504080446 41 0 0.0 0.0 0.00 0.00 0.00 25 975.0
20260504045737 42 0 0.0 0.0 0.00 0.00 0.00 24 979.0
20260504044902 43 0 0.0 0.0 0.00 0.00 0.00 25 979.0
20260504043329 41 0 0.0 0.0 0.00 0.00 0.00 29 980.0
20260504041820 41 0 0.0 0.0 0.00 0.00 0.00 30 980.0
20260504040305 40 0 0.0 0.0 0.00 0.00 0.00 32 980.0
20260504034753 40 0 0.0 0.0 0.00 0.00 0.00 32 980.0
20260504033241 40 0 0.0 0.0 0.00 0.00 0.00 32 980.0
20260504031729 38 0 0.0 0.0 0.00 0.00 0.00 35 980.0
20260504030216 37 0 0.0 0.0 0.00 0.00 0.00 37 980.0
20260504024704 37 0 0.0 0.0 0.00 0.00 0.00 40 980.0
20260504023152 36 0 0.0 0.0 0.00 0.00 0.00 42 980.0
20260504022852 35 0 0.0 0.0 0.00 0.00 0.00 42 980.0
20260504021342 35 0 0.0 0.0 0.00 0.00 0.00 44 980.0
20260504015828 34 0 0.0 0.0 0.00 0.00 0.00 47 980.0